Main page
METAR-TAF:

METAR-TAF

Airports :

Kashmar, Iran

latitude: 35-16-14N, longitude: 58-28-24E, elevation: 1110 m

Current weather observation

The report was made 45 minutes ago, at 15:00 UTC
Wind 8 kt from the South
Temperature 32°C
Humidity 14%
Pressure 1012 hPa

METAR: OIMQ 201500Z AUTO 18008KT //// // ////// 32/01 Q1012

Time: 20:15 (15:45 UTC)


TAF: missing

Weather observations and forecasts of more than 4000 airports (METAR and TAF reports).

The available stations are represented by yellow and red dots on the map.

Hover mouse over dot to see the name of the station.

Then click to see weather observations and forecasts.

To change the map : click on the green buttons with a black cross to zoom in, on the green button with a dash to zoom out, or on the green arrows for adjacent maps.


METAR-TAF: